| time (UTC) | temp F | wind direction | speed MPH | gust MPH | rain 1hr in | rain 24hr in | rain mn in | humidity % | barometer mb |
| 20260507024543 | 63 | 310 | 0.0 | 3.0 | 0.00 | 0.00 | 0.00 | 68 | 1016.5 |
| 20260507023027 | 64 | 297 | 3.0 | 6.0 | 0.00 | 0.00 | 0.00 | 65 | 1016.4 |
| 20260507021522 | 64 | 258 | 3.0 | 7.0 | 0.00 | 0.00 | 0.00 | 63 | 1016.4 |
| 20260507020026 | 65 | 261 | 3.0 | 8.0 | 0.00 | 0.00 | 0.00 | 63 | 1016.4 |
| 20260507014541 | 66 | 244 | 4.0 | 9.0 | 0.00 | 0.00 | 0.00 | 60 | 1016.3 |
| 20260507013023 | 66 | 225 | 4.0 | 9.0 | 0.00 | 0.00 | 0.00 | 59 | 1016.3 |
| 20260507011539 | 66 | 317 | 4.0 | 10.0 | 0.00 | 0.00 | 0.00 | 60 | 1016.3 |
| 20260507010040 | 67 | 250 | 5.0 | 9.0 | 0.00 | 0.00 | 0.00 | 58 | 1016.1 |
| 20260507004528 | 68 | 277 | 5.0 | 11.0 | 0.00 | 0.00 | 0.00 | 58 | 1016.1 |
| 20260507003032 | 68 | 329 | 5.0 | 11.0 | 0.00 | 0.00 | 0.00 | 58 | 1016.1 |
| 20260507001528 | 69 | 235 | 5.0 | 9.0 | 0.00 | 0.00 | 0.00 | 58 | 1016.2 |
| 20260507000031 | 69 | 257 | 5.0 | 10.0 | 0.00 | 0.00 | 0.00 | 58 | 1016.2 |
| 20260506234524 | 69 | 279 | 4.0 | 9.0 | 0.00 | 0.00 | 0.00 | 56 | 1016.2 |
| 20260506233026 | 69 | 300 | 7.0 | 11.0 | 0.00 | 0.00 | 0.00 | 56 | 1016.3 |
| 20260506231537 | 69 | 226 | 4.0 | 11.0 | 0.00 | 0.00 | 0.00 | 57 | 1016.4 |
| 20260506230021 | 69 | 265 | 5.0 | 11.0 | 0.00 | 0.00 | 0.00 | 57 | 1016.4 |
| 20260506224634 | 70 | 286 | 6.0 | 11.0 | 0.00 | 0.00 | 0.00 | 55 | 1016.5 |
| 20260506223032 | 69 | 287 | 4.0 | 12.0 | 0.00 | 0.00 | 0.00 | 57 | 1016.6 |
| 20260506221528 | 69 | 281 | 5.0 | 13.0 | 0.00 | 0.00 | 0.00 | 57 | 1016.8 |
| 20260506220032 | 69 | 288 | 5.0 | 12.0 | 0.00 | 0.00 | 0.00 | 58 | 1017.2 |
| 20260506214523 | 70 | 246 | 8.0 | 13.0 | 0.00 | 0.00 | 0.00 | 56 | 1017.3 |
| 20260506213126 | 69 | 246 | 6.0 | 15.0 | 0.00 | 0.00 | 0.00 | 58 | 1017.5 |
| 20260506211540 | 70 | 286 | 7.0 | 11.0 | 0.00 | 0.00 | 0.00 | 58 | 1017.5 |
| 20260506210024 | 71 | 285 | 5.0 | 14.0 | 0.00 | 0.00 | 0.00 | 57 | 1017.5 |
| 20260506204533 | 70 | 236 | 5.0 | 10.0 | 0.00 | 0.00 | 0.00 | 58 | 1017.6 |
| 20260506203026 | 69 | 275 | 7.0 | 14.0 | 0.00 | 0.00 | 0.00 | 60 | 1017.6 |
| 20260506201532 | 69 | 289 | 7.0 | 14.0 | 0.00 | 0.00 | 0.00 | 59 | 1017.9 |
| 20260506200035 | 70 | 313 | 7.0 | 14.0 | 0.00 | 0.00 | 0.00 | 58 | 1018.0 |
| 20260506194535 | 69 | 298 | 5.0 | 13.0 | 0.00 | 0.00 | 0.00 | 57 | 1018.1 |
| 20260506193034 | 69 | 267 | 6.0 | 11.0 | 0.00 | 0.00 | 0.00 | 56 | 1018.2 |
| 20260506191527 | 69 | 321 | 5.0 | 12.0 | 0.00 | 0.00 | 0.00 | 54 | 1018.3 |
| 20260506190033 | 69 | 317 | 5.0 | 13.0 | 0.00 | 0.00 | 0.00 | 54 | 1018.4 |
| 20260506184527 | 68 | 288 | 3.0 | 10.0 | 0.00 | 0.00 | 0.00 | 55 | 1018.5 |
| 20260506183031 | 68 | 249 | 5.0 | 11.0 | 0.00 | 0.00 | 0.00 | 57 | 1018.6 |
| 20260506181524 | 66 | 286 | 4.0 | 8.0 | 0.00 | 0.00 | 0.00 | 58 | 1018.7 |
| 20260506180025 | 66 | 288 | 2.0 | 8.0 | 0.00 | 0.00 | 0.00 | 58 | 1018.9 |
| 20260506174534 | 65 | 269 | 5.0 | 9.0 | 0.00 | 0.00 | 0.00 | 60 | 1018.8 |
| 20260506173038 | 65 | 320 | 3.0 | 10.0 | 0.00 | 0.00 | 0.00 | 61 | 1018.8 |
| 20260506171532 | 64 | 274 | 2.0 | 8.0 | 0.00 | 0.00 | 0.00 | 60 | 1018.9 |
| 20260506170033 | 63 | 296 | 2.0 | 9.0 | 0.00 | 0.00 | 0.00 | 63 | 1018.8 |
| 20260506164530 | 63 | 290 | 4.0 | 7.0 | 0.00 | 0.00 | 0.00 | 63 | 1018.7 |
| 20260506163034 | 63 | 284 | 1.0 | 6.0 | 0.00 | 0.00 | 0.00 | 64 | 1018.6 |
| 20260506161526 | 62 | 277 | 2.0 | 5.0 | 0.00 | 0.00 | 0.00 | 66 | 1018.7 |
| 20260506160030 | 61 | 229 | 2.0 | 7.0 | 0.00 | 0.00 | 0.00 | 69 | 1018.7 |
| 20260506154523 | 59 | 256 | 0.0 | 3.0 | 0.00 | 0.00 | 0.00 | 72 | 1018.7 |
| 20260506153039 | 59 | 277 | 1.0 | 4.0 | 0.00 | 0.00 | 0.00 | 74 | 1018.6 |
| 20260506151534 | 58 | 137 | 0.0 | 3.0 | 0.00 | 0.00 | 0.00 | 81 | 1018.6 |
| 20260506150024 | 56 | 128 | 0.0 | 2.0 | 0.00 | 0.00 | 0.00 | 84 | 1018.7 |
| 20260506144550 | 55 | 127 | 1.0 | 3.0 | 0.00 | 0.00 | 0.00 | 86 | 1018.6 |
| 20260506143048 | 54 | 111 | 0.0 | 3.0 | 0.00 | 0.00 | 0.00 | 87 | 1018.6 |
| 20260506141530 | 52 | 109 | 1.0 | 4.0 | 0.00 | 0.00 | 0.00 | 88 | 1018.6 |
| 20260506140048 | 51 | 107 | 0.0 | 3.0 | 0.00 | 0.00 | 0.00 | 89 | 1018.4 |
| 20260506134532 | 50 | 107 | 0.0 | 0.0 | 0.00 | 0.00 | 0.00 | 89 | 1018.3 |
| 20260506133029 | 50 | 107 | 0.0 | 0.0 | 0.00 | 0.00 | 0.00 | 89 | 1018.3 |
| 20260506131533 | 50 | 107 | 0.0 | 3.0 | 0.00 | 0.00 | 0.00 | 89 | 1018.1 |
| 20260506130143 | 49 | 107 | 0.0 | 3.0 | 0.00 | 0.00 | 0.00 | 89 | 1018.0 |
| 20260506124534 | 49 | 107 | 0.0 | 2.0 | 0.00 | 0.00 | 0.00 | 89 | 1017.9 |
| 20260506123035 | 49 | 107 | 1.0 | 3.0 | 0.00 | 0.00 | 0.00 | 89 | 1017.7 |
| 20260506121530 | 49 | 107 | 0.0 | 1.0 | 0.00 | 0.00 | 0.00 | 88 | 1017.6 |
| 20260506120034 | 49 | 107 | 1.0 | 3.0 | 0.00 | 0.00 | 0.00 | 88 | 1017.7 |
| 20260506114527 | 49 | 108 | 1.0 | 3.0 | 0.00 | 0.00 | 0.00 | 88 | 1017.6 |
| 20260506113037 | 50 | 109 | 0.0 | 0.0 | 0.00 | 0.00 | 0.00 | 88 | 1017.6 |
| 20260506111527 | 50 | 109 | 0.0 | 0.0 | 0.00 | 0.00 | 0.00 | 88 | 1017.5 |
| 20260506110039 | 50 | 109 | 0.0 | 4.0 | 0.00 | 0.00 | 0.00 | 88 | 1017.5 |
| 20260506104527 | 50 | 117 | 0.0 | 1.0 | 0.00 | 0.00 | 0.00 | 88 | 1017.5 |
| 20260506103027 | 50 | 117 | 1.0 | 6.0 | 0.00 | 0.00 | 0.00 | 88 | 1017.5 |
| 20260506101537 | 50 | 114 | 0.0 | 2.0 | 0.00 | 0.00 | 0.00 | 88 | 1017.5 |
| 20260506100025 | 50 | 115 | 0.0 | 0.0 | 0.00 | 0.00 | 0.00 | 88 | 1017.7 |
| 20260506094534 | 50 | 115 | 0.0 | 1.0 | 0.00 | 0.00 | 0.00 | 88 | 1017.8 |
| 20260506093038 | 51 | 115 | 0.0 | 0.0 | 0.00 | 0.00 | 0.00 | 88 | 1017.8 |
| 20260506091533 | 51 | 115 | 0.0 | 0.0 | 0.00 | 0.00 | 0.00 | 88 | 1017.8 |
| 20260506090039 | 51 | 115 | 1.0 | 2.0 | 0.00 | 0.00 | 0.00 | 88 | 1017.9 |
| 20260506084537 | 51 | 115 | 0.0 | 2.0 | 0.00 | 0.00 | 0.00 | 88 | 1017.9 |
| 20260506083033 | 51 | 115 | 1.0 | 3.0 | 0.00 | 0.00 | 0.00 | 88 | 1018.2 |
| 20260506081525 | 52 | 118 | 1.0 | 2.0 | 0.00 | 0.00 | 0.00 | 87 | 1018.2 |
| 20260506073024 | 52 | 136 | 1.0 | 3.0 | 0.00 | 0.00 | 0.00 | 87 | 1018.0 |
| 20260506071537 | 52 | 138 | 1.0 | 3.0 | 0.00 | 0.00 | 0.00 | 86 | 1017.9 |
| 20260506061528 | 53 | 259 | 0.0 | 2.0 | 0.00 | 0.00 | 0.00 | 84 | 1017.2 |
| 20260506044546 | 55 | 254 | 1.0 | 5.0 | 0.00 | 0.00 | 0.00 | 80 | 1016.7 |
| 20260506043038 | 55 | 256 | 0.0 | 4.0 | 0.00 | 0.00 | 0.00 | 79 | 1016.5 |
| 20260506041533 | 56 | 261 | 1.0 | 3.0 | 0.00 | 0.00 | 0.00 | 78 | 1016.3 |
| 20260506040035 | 56 | 268 | 0.0 | 0.0 | 0.00 | 0.00 | 0.00 | 77 | 1016.1 |
| 20260506034530 | 57 | 268 | 1.0 | 3.0 | 0.00 | 0.00 | 0.00 | 76 | 1015.9 |
| 20260506033032 | 57 | 267 | 1.0 | 3.0 | 0.00 | 0.00 | 0.00 | 75 | 1015.7 |
| 20260506031541 | 57 | 270 | 1.0 | 4.0 | 0.00 | 0.00 | 0.00 | 74 | 1015.4 |
| 20260506030031 | 58 | 237 | 2.0 | 4.0 | 0.00 | 0.00 | 0.00 | 73 | 1015.1 |